Pensacola, FL

4:39 PM CST on February 21, 2017 (GMT -0600)
Pensacola Naval Air Station

Weather History for KNPA - March, 2013

Change the Weather History Date:

Monday, March 4, 2013

  Actual Average Record
Temperature  
Mean Temperature 48 °F -  
Max Temperature 63 °F 65 °F 75 °F (2001)
Min Temperature 33 °F 47 °F 28 °F (2002)
Degree Days  
Heating Degree Days 17    
Moisture  
Dew Point 43 °F    
Average Humidity 78    
Maximum Humidity 100    
Minimum Humidity 51    
Precipitation  
Precipitation 0.00 in - - ()
Sea Level Pressure  
Sea Level Pressure 30.13 in    
Wind  
Wind Speed 4 mph (SSE)    
Max Wind Speed 15 mph    
Max Gust Speed 20 mph    
Visibility 10 miles    
Events Rain , Snow    
Averages and records for this station are not official NWS values.
T = Trace of Precipitation, MM = Missing Value Source: NWS Daily Summary

Daily Weather History Graph

Daily Weather History Graph

Search for Another Location

Airport or City:

Trip Planner

Search our weather history database for the weather conditions in past years. The results will help you decide how hot, cold, wet, or windy it might be!

Date:

Astronomy

Mar. 04, 2013 Rise Set
Actual Time 6:11 AM CST 5:50 PM CST
Civil Twilight 5:47 AM CST 6:14 PM CST
Nautical Twilight 5:19 AM CST 6:42 PM CST
Astronomical Twilight 4:52 AM CST 7:10 PM CST
Moon 12:04 AM CST (3/4) 10:49 AM CST (3/4)
Length of Visible Light 12h 26m
Length of Day
11h 38m
Waning Gibbous, 52% of the Moon is Illuminated
Mar 4
Waning Gibbous
Mar 4
Last Quarter
Mar 11
New
Mar 19
First Quarter
Mar 27
Full

Hourly Weather History & Observations

Time (CST) Temp. Dew Point Humidity Pressure Visibility Wind Dir Wind Speed Gust Speed Precip Events Conditions
12:56 AM 34.0 °F 33.1 °F 96% 30.16 in 10.0 mi Calm Calm - 0.00 in Snow Light Snow
1:19 AM 33.8 °F 32.0 °F 93% 30.16 in 10.0 mi Calm Calm - 0.00 in Rain Light Freezing Rain
1:47 AM 33.8 °F 33.8 °F 100% 30.15 in 10.0 mi Calm Calm - 0.00 in   Clear
1:56 AM 34.0 °F 33.1 °F 96% 30.15 in 10.0 mi Calm Calm - 0.00 in   Clear
2:56 AM 34.0 °F 32.0 °F 92% 30.15 in 9.0 mi Calm Calm - 0.00 in Rain Light Rain
3:56 AM 34.0 °F 33.1 °F 96% 30.15 in 10.0 mi Calm Calm - N/A   Clear
4:56 AM 33.1 °F 32.0 °F 96% 30.15 in 5.0 mi Calm Calm - 0.00 in   Clear
5:56 AM 34.0 °F 33.1 °F 96% 30.16 in 5.0 mi Calm Calm - N/A   Partly Cloudy
6:56 AM 37.0 °F 35.1 °F 93% 30.17 in 10.0 mi Calm Calm - N/A   Partly Cloudy
7:56 AM 50.0 °F 44.1 °F 80% 30.20 in 10.0 mi ENE 4.6 mph - N/A   Scattered Clouds
8:56 AM 55.0 °F 39.9 °F 57% 30.21 in 10.0 mi East 6.9 mph - N/A   Scattered Clouds
9:56 AM 57.2 °F 39.2 °F 51% 30.20 in 10.0 mi ESE 8.1 mph - N/A   Scattered Clouds
10:56 AM 59.0 °F 41.0 °F 51% 30.19 in 10.0 mi SSE 11.5 mph - N/A   Partly Cloudy
11:56 AM 60.1 °F 42.1 °F 51% 30.18 in 10.0 mi SSE 10.4 mph - N/A   Partly Cloudy
12:56 PM 63.0 °F 46.0 °F 54% 30.14 in 10.0 mi SSE 12.7 mph 19.6 mph N/A   Scattered Clouds
1:56 PM 62.1 °F 46.0 °F 56% 30.12 in 10.0 mi SSE 13.8 mph - N/A   Scattered Clouds
2:56 PM 61.0 °F 46.9 °F 60% 30.11 in 10.0 mi South 15.0 mph - N/A   Mostly Cloudy
3:56 PM 61.0 °F 48.9 °F 64% 30.09 in 10.0 mi SSE 15.0 mph - N/A   Mostly Cloudy
4:56 PM 60.1 °F 50.0 °F 69% 30.09 in 10.0 mi SSE 12.7 mph - N/A   Mostly Cloudy
5:56 PM 60.1 °F 51.1 °F 72% 30.08 in 10.0 mi SSE 12.7 mph - N/A   Overcast
6:56 PM 60.1 °F 52.0 °F 75% 30.07 in 10.0 mi South 11.5 mph - N/A   Mostly Cloudy
7:56 PM 60.1 °F 54.0 °F 80% 30.06 in 10.0 mi South 11.5 mph - N/A   Mostly Cloudy
8:56 PM 61.0 °F 55.0 °F 81% 30.04 in 10.0 mi South 12.7 mph - N/A   Mostly Cloudy
9:56 PM 59.0 °F 55.9 °F 90% 30.05 in 10.0 mi South 8.1 mph - N/A   Overcast
10:56 PM 59.0 °F 55.9 °F 90% 30.04 in 10.0 mi South 6.9 mph - N/A   Mostly Cloudy
11:56 PM 59.0 °F 55.9 °F 90% 30.03 in 10.0 mi SSW 8.1 mph - N/A   Scattered Clouds